This demonstration page uses our WeatherBlox Daily Observations layout. Learn more.

Left ArrowRight Arrow

Hourly Observations for October 30, 2016

Temp ( °F °C ) Dew Point ( °F °C ) Humidity (%) Winds ( mph kmh ) Pressure ( in mb ) Visibility ( mi km ) Precip ( " mm )
12:53 am 00:53 Clear 63 17.2 46 7.8 54 54 SE 9 15 29.99 1016 10 16 0.00 0.00
1:53 am 01:53 Clear 61 16.1 46 7.8 58 58 E 5 7 29.98 1015 10 16 0.00 0.00
2:53 am 02:53 Clear 61 16.1 46 7.8 58 58 SE 8 13 29.99 1016 10 16 0.00 0.00
3:53 am 03:53 Clear 57 13.9 46 7.8 67 67 E 5 7 29.99 1016 10 16 0.00 0.00
4:53 am 04:53 Clear 53 11.7 44 6.7 72 72 N 7 11 29.99 1016 10 16 0.00 0.00
5:53 am 05:53 Clear 50 10 42 5.6 74 74 NNW 5 7 30.01 1016 10 16 0.00 0.00
6:53 am 06:53 Clear 49 9.4 42 5.6 77 77 NNW 5 7 30.02 1017 10 16 0.00 0.00
7:53 am 07:53 Clear 48 8.9 42 5.6 80 80 N 6 9 30.05 1018 10 16 0.00 0.00
8:53 am 08:53 Sunny 52 11.1 44 6.7 75 75 NNW 5 7 30.07 1018 10 16 0.00 0.00
9:53 am 09:53 Sunny 62 16.7 47 8.3 58 58 NNW 3 6 30.08 1019 10 16 0.00 0.00
10:53 am 10:53 Sunny 70 21.1 47 8.3 44 44 Calm 30.08 1019 10 16 0.00 0.00
11:53 am 11:53 Sunny 75 23.9 45 7.2 34 34 VRB 3 6 30.08 1019 10 16 0.00 0.00
12:53 pm 12:53 Sunny 80 26.7 44 6.7 28 28 N 6 9 30.06 1018 10 16 0.00 0.00
1:53 pm 13:53 Sunny 84 28.9 46 7.8 27 27 VRB 5 7 30.03 1017 10 16 0.00 0.00
2:53 pm 14:53 Sunny 85 29.4 45 7.2 25 25 ESE 5 7 29.99 1016 10 16 0.00 0.00
3:53 pm 15:53 Sunny 87 30.6 43 6.1 21 21 SSE 5 7 29.98 1015 10 16 0.00 0.00
4:53 pm 16:53 Sunny 87 30.6 42 5.6 21 21 WSW 5 7 29.97 1015 10 16 0.00 0.00
5:53 pm 17:53 Sunny 87 30.6 40 4.4 19 19 SSW 7 11 29.96 1015 10 16 0.00 0.00
6:53 pm 18:53 Sunny 82 27.8 40 4.4 22 22 S 8 13 29.98 1015 10 16 0.00 0.00
7:53 pm 19:53 Clear 73 22.8 41 5 32 32 SSE 8 13 30.01 1016 7 11 0.00 0.00
8:53 pm 20:53 Clear 70 21.1 40 4.4 34 34 SSE 6 9 30.02 1017 10 16 0.00 0.00
9:53 pm 21:53 Clear 71 21.7 42 5.6 35 35 SE 10 17 30.01 1016 10 16 0.00 0.00
10:53 pm 22:53 Clear 68 20 43 6.1 40 40 SE 10 17 30.01 1016 10 16 0.00 0.00
11:53 pm 23:53 Clear 66 18.9 47 8.3 50 50 SE 10 17 30.01 1016 10 16 0.00 0.00

Powered by AerisWeather